Location: West Cummington
(42.4920°N, 72.9680°W)
Time: 12:23:32
(UTC-04:00)

Cosmos 2221 - Visible Passes

Search period start: 28 July 2014 00:00
Search period end: 07 August 2014 00:00
Orbit: 599 x 622 km, 82.5° (Epoch: 27 July)

Date Brightness Start Highest point End Pass type
(mag) Time Alt. Az. Time Alt. Az. Time Alt. Az.
28 Jul 3.3 02:46:21 40° ESE 02:47:09 45° E 02:51:22 10° NNE visible
28 Jul 4.4 04:23:21 14° W 04:25:06 17° WNW 04:27:56 10° NNW visible
29 Jul 2.5 03:01:12 66° SSE 03:01:47 81° E 03:06:13 10° N visible
30 Jul 5.1 01:39:03 13° E 01:39:22 13° E 01:41:16 10° ENE visible
30 Jul 2.6 03:16:03 54° WSW 03:16:30 57° W 03:20:52 10° N visible
31 Jul 4.5 01:53:53 22° E 01:53:53 22° E 01:57:11 10° NE visible
31 Jul 3.4 03:30:52 32° W 03:31:18 33° WNW 03:35:19 10° N visible
01 Aug 3.7 02:08:41 36° E 02:08:41 36° E 02:12:25 10° NNE visible
01 Aug 4.2 03:45:40 20° W 03:46:10 20° WNW 03:49:27 10° NNW visible
02 Aug 3.0 02:23:28 59° ENE 02:23:28 59° ENE 02:27:21 10° NNE visible
02 Aug 4.7 04:00:28 12° WNW 04:01:08 12° WNW 04:02:51 10° NW visible
03 Aug 2.9 02:38:15 61° NNW 02:38:15 61° NNW 02:42:04 10° N visible
04 Aug 4.9 01:16:02 17° ENE 01:16:02 17° ENE 01:18:01 10° NE visible
04 Aug 3.5 02:53:01 38° NW 02:53:01 38° NW 02:56:35 10° N visible
05 Aug 4.4 01:30:47 26° ENE 01:30:47 26° ENE 01:33:25 10° NNE visible
05 Aug 4.1 03:07:46 23° WNW 03:07:46 23° WNW 03:10:51 10° NNW visible
06 Aug 3.9 01:45:31 37° NE 01:45:31 37° NE 01:48:26 10° NNE visible
06 Aug 4.7 03:22:30 14° WNW 03:22:30 14° WNW 03:24:38 10° NW visible
